Location: Starlight Observatory
(38.4029°N, 85.8936°W)
Time: 20:26:54
(UTC-04:00)

Amateur Radio Satellites - All Passes

Search period start: 30 April 2016 19:56
Search period end: 01 May 2016 19:56
Location: Starlight Observatory, 38.4029°N, 85.8936°W

Satellite Date Start Highest point End Downlink Frequencies (MHz)
Time Altitude Azimuth
CANX-2 30 Apr 19:57:35 19:59:58 15° 66° (ENE) 20:02:22 2200.000
CUBESAT XI-V 30 Apr 20:02:55 20:07:04 32° 290° (WNW) 20:11:13 437.345
AUBIESAT-1 30 Apr 20:17:29 20:21:53 42° 257° (WSW) 20:26:19 437.475
STRAND 1 30 Apr 20:19:36 20:24:07 31° 97° (E) 20:28:36 437.568
BEESAT 3 30 Apr 20:21:36 20:25:30 62° 303° (WNW) 20:29:26 437.485
Cosmos 2504 30 Apr 20:21:46 20:26:20 18° 82° (E) 20:30:49 435.465 / 435.565
HO-68 30 Apr 20:21:52 20:28:36 46° 67° (ENE) 20:35:20 435.675
BEESAT 2 30 Apr 20:23:58 20:27:55 78° 120° (ESE) 20:31:56 435.950
LilacSat-2 30 Apr 20:24:37 20:26:44 14° 267° (W) 20:28:52 437.200
CUTE 1.7 + AOD 2 30 Apr 20:29:24 20:33:04 29° 71° (ENE) 20:36:43 437.475
NOAA 18 30 Apr 20:37:46 20:40:06 13° 269° (W) 20:42:27 137.9125
JUGNU 30 Apr 20:43:31 20:45:18 11° 174° (S) 20:47:06 437.505
CUTE-I 30 Apr 20:45:36 20:48:16 14° 269° (W) 20:50:58 437.470
RS-15 30 Apr 20:49:12 20:52:51 12° 94° (E) 20:56:31 29.354- 29.394
CINEMA 3 30 Apr 20:51:12 20:56:05 59° 74° (ENE) 21:01:03 145.822/145.860
Cosmos 2491 30 Apr 20:51:13 20:58:29 30° 276° (W) 21:05:43 435.465 / 435.565
PRISM 30 Apr 20:57:59 20:59:55 13° 92° (E) 21:01:51 437.425
YUBILEINY 30 Apr 21:00:24 21:08:58 57° 282° (WNW) 21:17:31 435.215
SEEDS 30 Apr 21:00:45 21:04:46 48° 74° (ENE) 21:08:48 437.485
COMPASS 1 30 Apr 21:08:47 21:12:42 42° 73° (ENE) 21:16:37 437.405
GOMX 1 30 Apr 21:22:16 21:24:19 12° 272° (W) 21:26:24 467.674
DOVE 4 30 Apr 21:28:33 21:32:19 21° 268° (W) 21:36:14 437.250
CANX-2 30 Apr 21:31:25 21:35:27 43° 261° (W) 21:39:30 2200.000
AIST 2 30 Apr 21:36:01 21:39:37 29° 114° (ESE) 21:43:15 435.215
Oscar 11 30 Apr 21:40:51 21:44:41 32° 71° (ENE) 21:48:32 145.826/435.025
AAUSAT CUBESAT 2 30 Apr 21:41:49 21:45:56 86° 77° (ENE) 21:50:04 437.432
DELFI C3 30 Apr 21:42:14 21:44:27 15° 67° (ENE) 21:46:40 145.870
FUNcube-1 30 Apr 21:48:41 21:52:45 34° 71° (ENE) 21:56:48 145.935
UWE-3 30 Apr 21:52:50 21:57:25 60° 75° (ENE) 22:01:58 435.000/436.395/437.385
CUBEBUG 2 30 Apr 21:54:58 21:59:44 90° 256° (WSW) 22:04:29 437.445
STRAND 1 30 Apr 21:58:50 22:03:11 29° 292° (WNW) 22:07:32 437.568
BEESAT 2 30 Apr 22:04:59 22:06:17 11° 317° (NW) 22:07:37 435.950
CUTE 1.7 + AOD 2 30 Apr 22:05:42 22:08:54 21° 266° (W) 22:12:06 437.475
HO-68 30 Apr 22:10:08 22:16:24 32° 263° (W) 22:22:42 435.675
AO-85 30 Apr 22:10:27 22:13:53 19° 44° (NE) 22:17:07 145.980
Cosmos 2504 30 Apr 22:11:33 22:18:53 70° 279° (W) 22:26:03 435.465 / 435.565
HUMSAT D 30 Apr 22:19:08 22:22:05 19° 68° (ENE) 22:25:02 437.325/437.525
ZACube-1 30 Apr 22:29:04 22:33:37 81° 257° (WSW) 22:38:09 437.345
CINEMA 3 30 Apr 22:30:47 22:33:33 15° 269° (W) 22:36:20 145.822/145.860
PRISM 30 Apr 22:31:27 22:35:27 46° 287° (WNW) 22:39:27 437.425
JUGNU 30 Apr 22:31:27 22:33:25 12° 185° (S) 22:35:23 437.505
SEEDS 30 Apr 22:39:03 22:40:43 12° 269° (W) 22:42:25 437.485
COMPASS 1 30 Apr 22:46:20 22:48:27 14° 268° (W) 22:50:35 437.405
RS-15 30 Apr 22:51:41 23:02:42 68° 114° (ESE) 23:14:23 29.354- 29.394
ANTELSAT 30 Apr 22:59:27 23:01:10 12° 91° (E) 23:02:53 437.575/2403.000
AIST 2 30 Apr 23:14:41 23:18:06 24° 310° (NW) 23:21:31 435.215
AISAT 30 Apr 23:15:14 23:17:03 12° 63° (ENE) 23:18:51 437.250
DELFI C3 30 Apr 23:15:19 23:18:59 38° 262° (W) 23:22:41 145.870
Oscar 11 30 Apr 23:17:42 23:20:52 20° 266° (W) 23:24:02 145.826/435.025
ESTCUBE 1 30 Apr 23:22:40 23:25:51 19° 67° (ENE) 23:29:03 437.505/2401.250
FUNcube-1 30 Apr 23:25:36 23:29:02 21° 266° (W) 23:32:26 145.935
SRMSAT 30 Apr 23:26:13 23:28:30 12° 178° (S) 23:30:46 437.500
UWE-3 30 Apr 23:32:16 23:34:11 12° 269° (W) 23:36:07 435.000/436.395/437.385
50 SAT 30 Apr 23:37:04 23:39:40 19° 69° (ENE) 23:42:15 437.505
AO-85 30 Apr 23:50:10 23:54:46 53° 244° (WSW) 23:58:55 145.980
UNISAT 6 30 Apr 23:51:37 23:55:52 50° 100° (E) 00:00:00 437.425
HUMSAT D 30 Apr 23:53:36 23:57:28 34° 262° (W) 00:01:19 437.325/437.525
CUBEBUG 1 30 Apr 23:56:20 00:00:10 30° 70° (ENE) 00:04:01 437.445
NANOSAT C BR1 01 May 00:07:47 00:09:40 13° 92° (E) 00:11:32 145.865
TIGRISAT 01 May 00:09:55 00:14:16 79° 101° (E) 00:18:31 435.000
VELOX 1 01 May 00:16:53 00:21:11 54° 73° (ENE) 00:25:32 145.980
DX 1 01 May 00:21:53 00:26:08 56° 74° (ENE) 00:30:26 434.975-435.025
UKube-1 01 May 00:32:39 00:36:53 60° 74° (ENE) 00:41:10 .
ANTELSAT 01 May 00:33:59 00:38:13 51° 286° (WNW) 00:42:21 437.575/2403.000
AISAT 01 May 00:48:35 00:52:58 62° 259° (W) 00:57:24 437.250
GONETS M04 01 May 00:49:08 00:56:33 31° 84° (E) 01:03:56
QB50P2 01 May 00:56:31 01:00:42 54° 100° (E) 01:04:49 145.880/145.840
ESTCUBE 1 01 May 00:58:16 01:02:23 36° 262° (W) 01:06:33 437.505/2401.250
POLYITAN 1 01 May 00:58:39 01:02:49 54° 100° (E) 01:06:56 437.675
DUCHIFAT 1 01 May 00:59:26 01:03:33 49° 100° (E) 01:07:37 145.980
POPSAT HIP 1 01 May 01:01:52 01:06:04 58° 101° (E) 01:10:13 437.405
QB50P1 01 May 01:05:19 01:09:33 65° 101° (ESE) 01:13:43 145.935-145.965
RS-15 01 May 01:05:31 01:15:58 39° 318° (NW) 01:27:00 29.354- 29.394
SPROUT 01 May 01:06:46 01:11:03 71° 76° (ENE) 01:15:22 437.525
50 SAT 01 May 01:10:16 01:13:18 24° 264° (W) 01:16:21 437.505
SRMSAT 01 May 01:15:33 01:16:46 11° 188° (S) 01:17:58 437.500
O/OREOS (USA 219) 01 May 01:20:23 01:23:53 21° 59° (ENE) 01:27:21 437.305
UNISAT 6 01 May 01:29:58 01:32:07 14° 296° (WNW) 01:34:14 437.425
CUBEBUG 1 01 May 01:33:05 01:36:27 22° 265° (W) 01:39:51 437.445
PCSat 01 May 01:35:47 01:40:29 29° 52° (NE) 01:45:07 145.827
AIST 1 01 May 01:41:34 01:45:49 74° 96° (E) 01:50:10
NANOSAT C BR1 01 May 01:41:34 01:45:39 48° 287° (WNW) 01:49:42 145.865
JAS-2 01 May 01:45:57 01:52:33 29° 93° (E) 01:59:06 435.910
TISAT 1 01 May 01:49:17 01:53:28 62° 75° (ENE) 01:57:42 437.305
BUGSAT 1 01 May 01:50:51 01:55:04 86° 283° (WNW) 01:59:13 437.445
VELOX 1 01 May 01:56:08 01:57:59 12° 269° (W) 01:59:50 145.980
DX 1 01 May 02:01:07 02:02:39 12° 269° (W) 02:04:12 434.975-435.025
UKube-1 01 May 02:12:27 02:13:18 10° 269° (W) 02:14:10 .
ITUPSAT 1 01 May 02:14:39 02:18:17 22° 66° (ENE) 02:21:54 437.325
Cosmos 2499 01 May 02:24:27 02:31:29 67° 94° (E) 02:38:30 435.465 / 435.565
SWISSCUBE 01 May 02:24:39 02:28:49 31° 69° (ENE) 02:32:58 437.505
QB50P2 01 May 02:34:11 02:36:01 13° 296° (WNW) 02:37:49 145.880/145.840
POLYITAN 1 01 May 02:36:23 02:38:08 12° 296° (WNW) 02:39:52 437.675
DUCHIFAT 1 01 May 02:36:44 02:38:49 13° 295° (WNW) 02:40:51 145.980
POPSAT HIP 1 01 May 02:39:48 02:41:19 12° 296° (WNW) 02:42:50 437.405
QB50P1 01 May 02:43:53 02:44:44 11° 297° (WNW) 02:45:35 145.935-145.965
GONETS M04 01 May 02:44:16 02:52:52 54° 282° (WNW) 03:01:30
Gurwin Techsat 1B 01 May 02:52:01 02:55:49 20° 93° (E) 02:59:37 435.225
BEESAT 01 May 02:57:30 03:02:11 62° 74° (ENE) 03:06:54 436.000
O/OREOS (USA 219) 01 May 02:59:16 03:03:22 34° 256° (WSW) 03:07:24 437.305
CUSAT 1 01 May 03:01:05 03:08:05 54° 78° (ENE) 03:15:54 437.405
Oscar 19 01 May 03:14:04 03:19:19 82° 104° (ESE) 03:24:30 437.125/150
PCSat 01 May 03:18:55 03:23:56 39° 250° (WSW) 03:28:55 145.827
DANDE 01 May 03:23:49 03:29:54 40° 77° (ENE) 03:37:12 436.750
RS-15 01 May 03:25:42 03:33:21 19° 352° (N) 03:41:12 29.354- 29.394
JAS-2 01 May 03:30:12 03:37:46 58° 289° (WNW) 03:45:23 435.910
MOZHAYETS 4 01 May 03:49:29 03:52:19 16° 65° (ENE) 03:55:09
ITUPSAT 1 01 May 03:51:29 03:55:52 36° 262° (W) 04:00:16 437.325
KKS-1 01 May 04:00:27 04:04:30 34° 70° (ENE) 04:08:33 437.445
SWISSCUBE 01 May 04:02:42 04:06:35 25° 264° (W) 04:10:29 437.505
Cosmos 2499 01 May 04:20:23 04:25:13 19° 292° (WNW) 04:30:04 435.465 / 435.565
STARS 01 May 04:23:02 04:26:56 31° 70° (ENE) 04:30:51 437.465
ITAMSAT 1 01 May 04:27:53 04:33:04 68° 103° (ESE) 04:38:13 435.822/435.867
Gurwin Techsat 1B 01 May 04:30:54 04:35:59 48° 288° (WNW) 04:41:03 435.225
BEESAT 01 May 04:38:24 04:40:21 12° 269° (W) 04:42:18 436.000
BEESAT 3 01 May 04:40:21 04:44:09 43° 55° (NE) 04:47:54 437.485
BEESAT 2 01 May 04:43:45 04:47:15 28° 52° (NE) 04:50:43 435.950
CUSAT 1 01 May 04:43:47 04:49:57 31° 271° (W) 04:56:40 437.405
Oscar 19 01 May 04:55:54 04:57:53 12° 300° (WNW) 04:59:52 437.125/150
DANDE 01 May 05:06:41 05:12:39 37° 267° (W) 05:19:46 436.750
AO-7 01 May 05:15:35 05:23:46 57° 103° (ESE) 05:31:54 29.400- 29.500
JAS-2 01 May 05:19:00 05:21:14 11° 307° (NW) 05:23:31 435.910
YUBILEINY 01 May 05:19:21 05:22:13 12° 59° (ENE) 05:25:05 435.215
HORYU 2 01 May 05:21:36 05:23:53 14° 92° (E) 05:26:09 437.375
MOZHAYETS 4 01 May 05:24:41 05:29:05 46° 261° (W) 05:33:30
CUBESAT XI-V 01 May 05:28:17 05:31:36 20° 67° (ENE) 05:34:55 437.345
KKS-1 01 May 05:37:49 05:41:07 20° 266° (W) 05:44:27 437.445
RS-15 01 May 05:42:24 05:52:05 26° 28° (NNE) 06:01:51 29.354- 29.394
AIST 2 01 May 05:59:16 06:01:44 15° 45° (NE) 06:04:12 435.215
STARS 01 May 05:59:51 06:03:18 22° 265° (W) 06:06:46 437.465
Cosmos 2491 01 May 06:05:03 06:05:54 10° 73° (ENE) 06:06:46 435.465 / 435.565
ITAMSAT 1 01 May 06:09:09 06:11:56 15° 298° (WNW) 06:14:43 435.822/435.867
BEESAT 3 01 May 06:19:21 06:21:28 14° 251° (WSW) 06:23:34 437.485
BEESAT 2 01 May 06:21:49 06:24:58 23° 248° (WSW) 06:28:06 435.950
NOAA 15 01 May 06:32:11 06:35:06 15° 92° (E) 06:38:00 137.62
HORYU 2 01 May 06:56:25 07:00:42 48° 287° (WNW) 07:04:56 437.375
CUBESAT XI-V 01 May 07:04:26 07:08:41 38° 262° (W) 07:13:00 437.345
AO-7 01 May 07:09:01 07:16:05 33° 301° (WNW) 07:23:11 29.400- 29.500
YUBILEINY 01 May 07:12:08 07:20:49 68° 81° (E) 07:29:29 435.215
NOAA 18 01 May 07:17:20 07:22:19 35° 98° (E) 07:27:16 137.9125
CUTE-I 01 May 07:21:30 07:26:08 29° 96° (E) 07:30:43 437.470
STRAND 1 01 May 07:33:58 07:38:40 38° 70° (ENE) 07:43:21 437.568
AIST 2 01 May 07:36:30 07:40:34 56° 243° (WSW) 07:44:36 435.215
GOMX 1 01 May 07:44:47 07:49:18 26° 93° (E) 07:53:39 467.674
DOVE 4 01 May 07:52:13 07:54:45 14° 89° (E) 07:57:14 437.250
Cosmos 2491 01 May 07:52:13 08:00:55 67° 92° (E) 08:09:39 435.465 / 435.565
RS-15 01 May 07:54:58 08:07:17 71° 56° (NE) 08:19:33 29.354- 29.394
LilacSat-2 01 May 07:57:31 08:01:19 69° 101° (E) 08:05:04 437.200
AUBIESAT-1 01 May 08:00:10 08:01:58 13° 96° (E) 08:03:44 437.475
BRITE-PL 01 May 08:00:10 08:05:53 75° 101° (E) 08:11:30 437.365/2234.400
Cosmos 2504 01 May 08:04:44 08:11:41 37° 75° (ENE) 08:19:01 435.465 / 435.565
Cubesat XI-IV 01 May 08:04:45 08:10:06 77° 103° (ESE) 08:15:25 437.490
NOAA 15 01 May 08:10:00 08:15:16 63° 287° (WNW) 08:20:30 137.62
SO-50 01 May 08:40:44 08:45:38 90° 139° (SE) 08:50:35 436.795
CINEMA 3 01 May 08:49:26 08:52:05 15° 91° (E) 08:54:39 145.822/145.860
NOAA 18 01 May 08:58:14 09:02:49 28° 294° (WNW) 09:07:24 137.9125
ISS 01 May 09:01:17 09:04:33 83° 322° (NW) 09:07:49 145.825
CUTE-I 01 May 09:01:26 09:06:07 32° 292° (WNW) 09:10:47 437.470
YUBILEINY 01 May 09:10:22 09:16:46 24° 279° (W) 09:23:10 435.215
M-CUBED/EXP-1 PRIME 01 May 09:12:33 09:16:28 55° 291° (WNW) 09:20:03 437.505
STRAND 1 01 May 09:13:56 09:17:55 23° 265° (W) 09:21:55 437.568
CANX-2 01 May 09:17:54 09:21:43 33° 97° (E) 09:25:33 2200.000
PRISM 01 May 09:19:01 09:23:05 82° 257° (WSW) 09:27:11 437.425
GOMX 1 01 May 09:22:24 09:27:25 38° 290° (WNW) 09:32:14 467.674
AAUSAT CUBESAT 2 01 May 09:26:59 09:29:20 15° 93° (E) 09:31:40 437.432
DOVE 4 01 May 09:27:48 09:32:54 62° 286° (WNW) 09:37:44 437.250
AUBIESAT-1 01 May 09:33:05 09:36:44 38° 293° (WNW) 09:40:07 437.475
HO-68 01 May 09:38:14 09:45:14 54° 101° (ESE) 09:52:12 435.675
BRITE-PL 01 May 09:40:22 09:43:38 16° 298° (WNW) 09:46:53 437.365/2234.400
UWE-3 01 May 09:46:18 09:48:02 12° 91° (E) 09:49:46 435.000/436.395/437.385
Cubesat XI-IV 01 May 09:46:58 09:49:29 14° 299° (WNW) 09:51:59 437.490
CUBEBUG 2 01 May 09:48:38 09:51:49 20° 93° (E) 09:54:55 437.445
CUTE 1.7 + AOD 2 01 May 09:50:46 09:55:00 73° 103° (ESE) 09:59:12 437.475
Cosmos 2491 01 May 09:51:28 09:58:25 25° 292° (WNW) 10:05:26 435.465 / 435.565
ANTELSAT 01 May 09:57:43 09:59:04 11° 63° (ENE) 10:00:24 437.575/2403.000
Cosmos 2504 01 May 09:58:03 10:04:59 40° 271° (W) 10:12:21 435.465 / 435.565
RS-15 01 May 10:08:33 10:18:49 33° 256° (WSW) 10:29:04 29.354- 29.394
ZACube-1 01 May 10:19:59 10:23:07 20° 94° (E) 10:26:12 437.345
SEEDS 01 May 10:21:27 10:25:37 67° 285° (WNW) 10:29:46 437.485
SO-50 01 May 10:24:10 10:26:49 14° 319° (NW) 10:29:28 436.795
CINEMA 3 01 May 10:25:02 10:29:31 46° 287° (WNW) 10:33:46 145.822/145.860
COMPASS 1 01 May 10:28:12 10:32:22 79° 283° (WNW) 10:36:32 437.405
ISS 01 May 10:39:25 10:41:26 15° 339° (NNW) 10:43:26 145.825
UNISAT 6 01 May 10:48:35 10:52:54 39° 72° (ENE) 10:57:11 437.425
CANX-2 01 May 10:54:22 10:57:20 19° 292° (WNW) 11:00:18 2200.000
DELFI C3 01 May 10:54:32 10:57:58 27° 97° (E) 11:01:24 145.870
PHONESAT 2.4 01 May 11:00:30 11:02:58 21° 150° (SSE) 11:05:27 2401.200-2431.200
AAUSAT CUBESAT 2 01 May 11:01:06 11:04:58 40° 287° (WNW) 11:08:50 437.432
GONETS M04 01 May 11:02:43 11:06:27 13° 60° (ENE) 11:10:08
Oscar 11 01 May 11:04:54 11:09:13 83° 100° (E) 11:13:32 145.826/435.025
TIGRISAT 01 May 11:06:27 11:11:02 57° 74° (ENE) 11:15:34 435.000
FUNcube-1 01 May 11:14:01 11:18:14 85° 109° (ESE) 11:22:21 145.935
UWE-3 01 May 11:20:41 11:24:48 48° 286° (WNW) 11:28:49 435.000/436.395/437.385
CUBEBUG 2 01 May 11:24:40 11:28:30 31° 290° (WNW) 11:32:12 437.445
HO-68 01 May 11:26:41 11:32:32 28° 298° (WNW) 11:38:22 435.675
ANTELSAT 01 May 11:30:29 11:35:09 74° 257° (WSW) 11:39:47 437.575/2403.000
HUMSAT D 01 May 11:38:17 11:42:07 38° 98° (E) 11:45:55 437.325/437.525
QB50P2 01 May 11:47:40 11:51:30 33° 71° (ENE) 11:55:22 145.880/145.840
POLYITAN 1 01 May 11:49:46 11:53:38 34° 71° (ENE) 11:57:31 437.675
DUCHIFAT 1 01 May 11:49:56 11:53:39 30° 70° (ENE) 11:57:23 145.980
AIST 1 01 May 11:51:14 11:54:00 16° 72° (ENE) 11:56:46
POPSAT HIP 1 01 May 11:52:48 11:56:43 35° 71° (ENE) 12:00:38 437.405
ZACube-1 01 May 11:55:47 11:59:25 29° 290° (WNW) 12:03:02 437.345
QB50P1 01 May 11:56:08 12:00:06 39° 72° (ENE) 12:04:07 145.935-145.965
VELOX 1 01 May 12:10:46 12:12:18 12° 91° (E) 12:13:50 145.980
DX 1 01 May 12:14:14 12:15:16 11° 91° (E) 12:16:18 434.975-435.025
Cosmos 2499 01 May 12:16:53 12:22:32 21° 69° (ENE) 12:28:26 435.465 / 435.565
UKube-1 01 May 12:23:44 12:25:00 11° 91° (E) 12:26:15 .
UNISAT 6 01 May 12:26:23 12:29:42 19° 266° (W) 12:33:01 437.425
DELFI C3 01 May 12:29:45 12:32:40 20° 291° (WNW) 12:35:35 145.870
NANOSAT C BR1 01 May 12:31:37 12:35:53 83° 255° (WSW) 12:40:11 145.865
PHONESAT 2.4 01 May 12:36:26 12:39:35 90° 168° (SSE) 12:42:45 2401.200-2431.200
BUGSAT 1 01 May 12:38:41 12:42:46 52° 74° (ENE) 12:46:56 437.445
AISAT 01 May 12:40:39 12:44:29 27° 96° (E) 12:48:17 437.250
50 SAT 01 May 12:41:08 12:44:18 28° 97° (E) 12:47:29 437.505
TIGRISAT 01 May 12:45:53 12:48:01 13° 269° (W) 12:50:08 435.000
ESTCUBE 1 01 May 12:51:46 12:56:11 49° 100° (E) 13:00:34 437.505/2401.250
Oscar 19 01 May 12:53:51 12:55:53 12° 60° (ENE) 12:57:55 437.125/150
SPROUT 01 May 12:56:02 12:58:10 13° 92° (E) 13:00:17 437.525
GONETS M04 01 May 12:56:10 13:04:57 73° 81° (E) 13:13:38
HUMSAT D 01 May 13:15:01 13:17:24 15° 294° (WNW) 13:19:48 437.325/437.525
CUBEBUG 1 01 May 13:21:52 13:26:19 77° 102° (ESE) 13:30:44 437.445
QB50P2 01 May 13:24:17 13:27:21 19° 266° (W) 13:30:28 145.880/145.840
DUCHIFAT 1 01 May 13:26:07 13:29:21 21° 265° (W) 13:32:36 145.980
POLYITAN 1 01 May 13:26:27 13:29:30 19° 266° (W) 13:32:34 437.675
AIST 1 01 May 13:27:39 13:31:46 39° 268° (W) 13:35:52
POPSAT HIP 1 01 May 13:29:39 13:32:35 18° 266° (W) 13:35:32 437.405
QB50P1 01 May 13:33:21 13:36:02 16° 267° (W) 13:38:43 145.935-145.965
TISAT 1 01 May 13:37:32 13:38:26 11° 91° (E) 13:39:19 437.305
JAS-2 01 May 13:40:37 13:46:18 57° 71° (ENE) 13:52:46 435.910
VELOX 1 01 May 13:44:43 13:49:07 59° 286° (WNW) 13:53:30 145.980
DX 1 01 May 13:47:29 13:51:49 61° 286° (WNW) 13:56:09 434.975-435.025
ISS 01 May 13:54:56 13:56:43 14° 20° (NNE) 13:58:30 145.825
UKube-1 01 May 13:57:07 14:01:23 58° 286° (WNW) 14:05:38 .
AO-85 01 May 14:01:16 14:06:41 75° 118° (ESE) 14:12:08 145.980
Cosmos 2499 01 May 14:08:32 14:16:12 72° 266° (W) 14:24:30 435.465 / 435.565
ITAMSAT 1 01 May 14:09:47 14:10:50 11° 59° (ENE) 14:11:53 435.822/435.867
Gurwin Techsat 1B 01 May 14:11:29 14:15:55 28° 67° (ENE) 14:20:23 435.225
PHONESAT 2.4 01 May 14:13:29 14:16:35 55° 1° (N) 14:19:43 2401.200-2431.200
50 SAT 01 May 14:15:32 14:17:54 16° 292° (WNW) 14:20:15 437.505
BUGSAT 1 01 May 14:16:50 14:18:27 12° 269° (W) 14:20:04 437.445
AISAT 01 May 14:17:10 14:20:51 25° 292° (WNW) 14:24:31 437.250
AO-7 01 May 14:25:46 14:29:38 14° 48° (NE) 14:33:29 29.400- 29.500
Oscar 19 01 May 14:29:18 14:34:28 81° 257° (WSW) 14:39:41 437.125/150
ESTCUBE 1 01 May 14:29:56 14:32:33 15° 295° (WNW) 14:35:10 437.505/2401.250
SPROUT 01 May 14:30:14 14:34:22 47° 287° (WNW) 14:38:27 437.525
GONETS M04 01 May 14:54:40 15:00:48 22° 280° (W) 15:06:55
BEESAT 01 May 15:00:10 15:03:22 18° 93° (E) 15:06:32 436.000
TISAT 1 01 May 15:10:16 15:14:26 57° 285° (WNW) 15:18:33 437.305
JAS-2 01 May 15:27:45 15:31:56 20° 271° (W) 15:36:28 435.910
ISS 01 May 15:30:26 15:33:41 67° 38° (NE) 15:36:56 145.825
O/OREOS (USA 219) 01 May 15:30:44 15:34:47 31° 104° (ESE) 15:38:50 437.305
AO-85 01 May 15:43:54 15:47:46 19° 316° (NW) 15:51:34 145.980
ITAMSAT 1 01 May 15:44:19 15:49:30 88° 73° (ENE) 15:54:42 435.822/435.867
PHONESAT 2.4 01 May 15:50:24 15:53:34 75° 198° (SSW) 15:56:43 2401.200-2431.200
Gurwin Techsat 1B 01 May 15:50:55 15:55:42 34° 263° (W) 16:00:33 435.225
ITUPSAT 1 01 May 15:52:55 15:57:39 63° 101° (ESE) 16:02:23 437.325
SWISSCUBE 01 May 16:03:11 16:07:58 89° 288° (WNW) 16:12:44 437.505
CUSAT 1 01 May 16:05:28 16:08:27 36° 91° (E) 16:12:12 437.405
Cosmos 2499 01 May 16:06:38 16:08:02 11° 283° (WNW) 16:09:26 435.465 / 435.565
AO-7 01 May 16:12:41 16:20:50 67° 68° (ENE) 16:29:02 29.400- 29.500
PCSat 01 May 16:15:57 16:20:44 33° 109° (ESE) 16:25:33 145.827
HORYU 2 01 May 16:19:15 16:20:56 12° 63° (ENE) 16:22:37 437.375
DANDE 01 May 16:35:06 16:37:21 23° 90° (E) 16:39:56 436.750
BEESAT 01 May 16:36:49 16:41:20 44° 289° (WNW) 16:45:50 436.000
ISS 01 May 17:08:46 17:09:43 11° 233° (SW) 17:10:42 145.825
O/OREOS (USA 219) 01 May 17:10:27 17:14:11 24° 300° (WNW) 17:17:56 437.305
SO-50 01 May 17:13:57 17:18:34 52° 55° (NE) 17:23:01 436.795
MOZHAYETS 4 01 May 17:20:59 17:25:22 44° 99° (E) 17:29:43
PHONESAT 2.4 01 May 17:27:59 17:30:06 17° 213° (SSW) 17:32:13 2401.200-2431.200
KKS-1 01 May 17:28:47 17:33:16 86° 103° (ESE) 17:37:44 437.445
ITUPSAT 1 01 May 17:32:36 17:34:56 14° 297° (WNW) 17:37:16 437.325
Cubesat XI-IV 01 May 17:48:41 17:51:14 14° 61° (ENE) 17:53:47 437.490
STARS 01 May 17:49:31 17:53:56 75° 102° (ESE) 17:58:19 437.465
CUSAT 1 01 May 17:50:24 17:51:09 10° 299° (WNW) 17:51:58 437.405
NOAA 15 01 May 17:50:29 17:54:25 22° 64° (ENE) 17:58:21 137.62
HORYU 2 01 May 17:52:29 17:56:55 64° 258° (WSW) 18:01:23 437.375
PCSat 01 May 17:59:12 18:04:04 33° 306° (NW) 18:08:58 145.827
Cosmos 2491 01 May 18:05:05 18:12:39 31° 71° (ENE) 18:20:06 435.465 / 435.565
AO-7 01 May 18:07:40 18:14:07 25° 265° (W) 18:20:38 29.400- 29.500
YUBILEINY 01 May 18:20:06 18:24:02 14° 76° (ENE) 18:27:57 435.215
M-CUBED/EXP-1 PRIME 01 May 18:24:18 18:26:58 15° 59° (ENE) 18:29:36 437.505
BEESAT 3 01 May 18:33:14 18:33:37 10° 108° (ESE) 18:34:00 437.485
LilacSat-2 01 May 18:38:15 18:41:32 27° 71° (ENE) 18:44:50 437.200
CUTE-I 01 May 18:41:45 18:46:44 42° 70° (ENE) 18:51:44 437.470
NOAA 18 01 May 18:41:58 18:47:23 60° 72° (ENE) 18:52:48 137.9125
AUBIESAT-1 01 May 18:43:34 18:46:49 19° 62° (ENE) 18:50:04 437.475
GOMX 1 01 May 18:51:21 18:55:14 23° 66° (ENE) 18:59:19 467.674
SO-50 01 May 18:55:46 18:58:34 16° 252° (WSW) 19:01:18 436.795
DOVE 4 01 May 18:56:22 18:58:46 13° 62° (ENE) 19:01:12 437.250
MOZHAYETS 4 01 May 18:59:13 19:02:09 17° 294° (WNW) 19:05:06
CUBESAT XI-V 01 May 19:01:55 19:06:34 58° 100° (E) 19:11:12 437.345
BRITE-PL 01 May 19:09:19 19:13:59 68° 75° (ENE) 19:19:06 437.365/2234.400
Cubesat XI-IV 01 May 19:25:18 19:30:37 77° 257° (WSW) 19:35:58 437.490
NOAA 15 01 May 19:28:49 19:33:50 45° 261° (W) 19:38:54 137.62
STARS 01 May 19:29:26 19:29:39 10° 298° (WNW) 19:29:51 437.465
STRAND 1 01 May 19:47:19 19:50:02 14° 92° (E) 19:52:46 437.568
CINEMA 3 01 May 19:49:36 19:52:18 15° 64° (ENE) 19:54:59 145.822/145.860
